World > North America > United States > New Hampshire

Dublin, New Hampshire Regional Weather

Lat: 42.92N, Lon: 72.07W
Wx Zone: NHZ011
Warning NWS WEATHER ALERT - FLOOD WATCH (More Info. Click Here) Warning
Feedback

Dublin, NH Regional Weather

Expires:201910162000;;806832
ASUS41 KBOX 161910
RWRBOX

REGIONAL WEATHER ROUNDUP
NATIONAL WEATHER SERVICE BOSTON/NORTON MA
300 PM EDT WED OCT 16 2019

NOTE:  "FAIR" INDICATES FEW OR NO CLOUDS BELOW 12,000 FEET WITH NO 
SIGNIFICANT WEATHER AND/OR OBSTRUCTIONS TO VISIBILITY.


MEZ002-015-021-024-NHZ003-005-008-011-012-014-VTZ005-008-162000-
NORTHERN NEW ENGLAND
  
CITY           SKY/WX    TMP DP  RH WIND       PRES   REMARKS
PORTLAND ME    PTSUNNY   57  42  57 SE13G21   29.96F                  
BANGOR ME      PTSUNNY   58  40  51 S13       29.99F                  
CONCORD NH     FAIR      58  39  49 E10       29.88F                  
MANCHESTER NH  CLOUDY    59  40  49 SE13      29.87F                  
NASHUA NH      FAIR      59  42  53 SE13      29.88F                  
PORTSMOUTH NH  CLOUDY    58  43  57 SE15G21   29.92F                  
JAFFREY NH     FAIR      57  42  57 VRB7      29.86F                  
KEENE NH       FAIR      59  43  55 SE8       29.84F                  
BURLINGTON VT  PTSUNNY   64  40  41 S17G25    29.73F                  
MT. WASHINGTON FOG       28  28 100 SE36        N/A  VSB 1/16WCI  12  
$$


SKY/WX - Weather  TMP - Temperature  DP - Dew Point  RH - Relative Humidity
WIND - Wind Direction/Speed PRES - Barometric Pressure VSB - Visibility
WCI - Wind Chill Index E13G22 Wind - East Wind 13 mph/Gusts of 22 mph